STARLINK-5655, 55336

Orbit data source: Space-Track

STARLINK-5655, 55336 is a payload satellite owned by SpaceX/Seattle (US) in LEO that was launched on Thu, 26 Jan 2023 UTC via an FALCON 9 launch vehicle from the Air Force Eastern Test Range (AFETR). Payload-class satellites include a variety of spacecraft equipped with specific instruments for various scientific and technological missions. These include communications satellites like Starlink; space stations such as the ISS; scientific satellites like the Hubble; Earth observation satellites from companies like Planet Labs, Umbra, and HawkEye 360; GPS; miniature CubeSats for education and research; and military/defense satellites.

Loading next visibility...
Identifier
55336, 2023-013F
Orbit
LEO
Country
Flag of USUS
Related business
Manufacturer
SpaceX/Seattle
Mission
Operational Commercial Communications
Bus & Motor
STARLINK, Unknown motor
Mass
305 kg wet, ~290 kg dry
Launch date (UTC)
2023-01-26 (3 years ago)
Launch vehicle
FALCON 9
Launch site
Air Force Eastern Test Range (AFETR)
Object type
Payload
Rocket body
Debris
Shape & HBR
Box + 1 Pan, 10.1 m
Radar Cross Section
13.562 m², Large (>1 m²)

Expand to show TLE details & history
Last TLE update: 2 days ago

TLE from 2 days ago
0 STARLINK-5655
1 55336U 23013F   26171.42000922 -.00000351  00000-0 -32331-5 0  9995
2 55336  43.0040  68.5253 0000954 259.6790 100.3954 15.27575282187552
Epoch: 2026-06-20T10:04Z
TLE epoch observation values (Epoch: 2026-06-20T10:04:48.796Z)
Latitude
-0.00004°
Longitude
8.68705°
Altitude
482.957 km
Speed
7.626 km/s
True Right ascension
04h 34m 06s
True Declination
0° 00' 00"
Sunlit
Object was in daylight at epoch
Visualization orbit readout
Latitude
Unknown
Longitude
Unknown
Altitude
Unknown
Speed
Unknown
Apparent Right ascension
Unknown
Apparent Declination
Unknown
Sunlit
N/A
Visualization observer readout
Local Sidereal Time
21:42:04
Azimuth
Unknown
Elevation
Unknown
Doppler factor
Unknown
Orbital elements
Apogee altitude
485.662 km
Perigee altitude
484.353 km
Semi-major axis
6,863.145 km
Eccentricity
0.0001
Inclination
43.004°
RAAN
68.5253°
Arg. of periapsis
259.679°
True anomaly
100.40615°
Mean anomaly
100.3954°
Eccentric anomaly
100.40078°
Mean motion
3.81732 °/min
Orbital period
94.31 mins
BSTAR
-0.0000032331
Loading maneuver chart data...
Computing Atmospheric mass density...
Loading historical data...
Loading historical data...
Loading historical data...
Loading historical data...
Loading historical data...
Loading historical data...
Loading historical data...

Documentation

Showing up to 5 results
|